Bookmark and Share
Track history (hours):
 

Fuji Maru

Last reported at 2014-Apr-19 20:31 UTC. Time now 2014-Apr-19 22:22 UTC.
Position N 35°36' E 139°47'.

Length 38 m; draft 4.4 m.

Type: Tug. MMSI: 431001102.

NotesDate/timePositionNaut miles runAvg speedWind from/ knotsBaromVisibWave heightAir tempDewpointWater temp
2014-Apr-19 20:31N 35°36' E 139°47'3 2.4
2014-Apr-19 19:29N 35°39' E 139°46'0 0.0
2014-Apr-19 18:32N 35°39' E 139°46'0 0.0
2014-Apr-19 17:29N 35°39' E 139°46'0 0.0
2014-Apr-19 16:29N 35°39' E 139°46'0 0.0
2014-Apr-19 15:26N 35°39' E 139°46'0 0.0
2014-Apr-19 14:26N 35°39' E 139°46'0 0.0
2014-Apr-19 13:20N 35°39' E 139°46'0 0.0
2014-Apr-19 12:32N 35°39' E 139°46'0 0.0
2014-Apr-19 11:32N 35°39' E 139°46'0 0.0
2014-Apr-19 10:32N 35°39' E 139°46'0 0.0
2014-Apr-19 09:32N 35°39' E 139°46'0 0.0
2014-Apr-19 08:32N 35°39' E 139°46'0 0.0
2014-Apr-19 07:26N 35°39' E 139°46'0 0.0
2014-Apr-19 06:29N 35°39' E 139°46'0 0.0
2014-Apr-19 05:32N 35°39' E 139°46'0 0.0
2014-Apr-19 04:32N 35°39' E 139°46'0 0.0
2014-Apr-19 03:32N 35°39' E 139°46'0 0.0
2014-Apr-19 02:20N 35°39' E 139°46'0 0.0
2014-Apr-19 01:32N 35°39' E 139°46'0 0.0
2014-Apr-19 00:32N 35°39' E 139°46'0 0.0
2014-Apr-18 23:29N 35°39' E 139°46'0 0.0
2014-Apr-18 22:29N 35°39' E 139°46'0 0.0
2014-Apr-18 21:32N 35°39' E 139°46'0 0.0
2014-Apr-18 20:26N 35°39' E 139°46'0 0.0
2014-Apr-18 19:29N 35°39' E 139°46'0 0.0
2014-Apr-18 18:32N 35°39' E 139°46'0 0.0
2014-Apr-18 17:23N 35°39' E 139°46'0 0.0
2014-Apr-18 16:32N 35°39' E 139°46'3 3.3
2014-Apr-18 15:33N 35°36' E 139°47'1 0.6
2014-Apr-18 14:33N 35°36' E 139°46'2 1.7
2014-Apr-18 13:25N 35°38' E 139°46'0 0.0
2014-Apr-18 12:31N 35°38' E 139°46'0 0.0
2014-Apr-18 11:33N 35°38' E 139°46'4 3.6
2014-Apr-18 10:33N 35°35' E 139°48'1 1.1
2014-Apr-18 09:34N 35°35' E 139°47'1 0.9
2014-Apr-18 08:33N 35°36' E 139°47'3 2.7
2014-Apr-18 07:33N 35°39' E 139°46'0 0.0
2014-Apr-18 06:33N 35°39' E 139°46'0 0.0
2014-Apr-18 05:33N 35°39' E 139°46'0 0.0
2014-Apr-18 04:24N 35°39' E 139°46'0 0.0
2014-Apr-18 03:33N 35°39' E 139°46'0 0.0
2014-Apr-18 02:30N 35°39' E 139°46'0 0.0
2014-Apr-18 01:33N 35°39' E 139°46'0 0.0
2014-Apr-18 00:27N 35°39' E 139°46'3 3.8
2014-Apr-17 23:33N 35°35' E 139°47'2 2.4
2014-Apr-17 22:33N 35°34' E 139°49'4 4.5
2014-Apr-17 21:33N 35°38' E 139°46'1 1.0
2014-Apr-17 20:26N 35°39' E 139°46'0 0.0
2014-Apr-17 19:32N 35°39' E 139°46'0 0.0
2014-Apr-17 18:26N 35°39' E 139°46'0 0.0
2014-Apr-17 17:29N 35°39' E 139°46'0 0.0
2014-Apr-17 16:32N 35°39' E 139°46'0 0.0
2014-Apr-17 15:32N 35°39' E 139°46'0 0.0
2014-Apr-17 14:29N 35°39' E 139°46'0 0.0
2014-Apr-17 13:29N 35°39' E 139°46'0 0.0
2014-Apr-17 12:32N 35°39' E 139°46'0 0.0
2014-Apr-17 11:29N 35°39' E 139°46'5 5.0
2014-Apr-17 10:34N 35°35' E 139°48'3 2.6
2014-Apr-17 09:33N 35°37' E 139°46'2 1.6
2014-Apr-17 08:30N 35°38' E 139°46'1 1.3
2014-Apr-17 07:33N 35°37' E 139°46'2 1.8
2014-Apr-17 06:32N 35°39' E 139°46'0 0.0
2014-Apr-17 05:32N 35°39' E 139°46'0 0.0
2014-Apr-17 04:29N 35°39' E 139°46'0 0.0
2014-Apr-17 03:29N 35°39' E 139°46'0 0.1
2014-Apr-17 02:32N 35°39' E 139°46'0 0.0
2014-Apr-17 01:29N 35°39' E 139°46'0 0.0
2014-Apr-17 00:29N 35°39' E 139°46'0 0.0
2014-Apr-16 23:32N 35°39' E 139°46'0 0.0
2014-Apr-16 22:32N 35°39' E 139°46'0 0.3
2014-Apr-16 21:33N 35°39' E 139°46'2 2.0
2014-Apr-16 20:33N 35°37' E 139°46'2 2.3
2014-Apr-16 19:32N 35°39' E 139°46'0 0.0
2014-Apr-16 18:29N 35°39' E 139°46'0 0.0
2014-Apr-16 17:32N 35°39' E 139°46'0 0.0
2014-Apr-16 16:29N 35°39' E 139°46'0 0.0
2014-Apr-16 15:17N 35°39' E 139°46'0 0.1
2014-Apr-16 14:32N 35°39' E 139°46'0 0.1
2014-Apr-16 13:26N 35°39' E 139°46'0 0.0
2014-Apr-16 12:32N 35°39' E 139°46'0 0.0
2014-Apr-16 11:26N 35°39' E 139°46'0 0.0
2014-Apr-16 10:29N 35°39' E 139°46'0 0.0
2014-Apr-16 09:23N 35°39' E 139°46'0 0.0
2014-Apr-16 08:29N 35°39' E 139°46'0 0.0
2014-Apr-16 07:23N 35°39' E 139°46'0 0.4
2014-Apr-16 06:26N 35°39' E 139°46'0 0.4
2014-Apr-16 05:32N 35°39' E 139°46'0 0.0
2014-Apr-16 04:29N 35°39' E 139°46'0 0.0
2014-Apr-16 03:32N 35°39' E 139°46'0 0.0
2014-Apr-16 02:29N 35°39' E 139°46'3 2.9
2014-Apr-16 01:27N 35°36' E 139°46'4 4.3
2014-Apr-16 00:33N 35°34' E 139°50'6 6.3
2014-Apr-15 23:33N 35°39' E 139°46'0 0.0
2014-Apr-15 22:24N 35°39' E 139°46'0 0.0
2014-Apr-15 21:24N 35°39' E 139°46'0 0.0
2014-Apr-15 20:33N 35°39' E 139°46'0 0.0
2014-Apr-15 19:27N 35°39' E 139°46'0 0.0
2014-Apr-15 18:27N 35°39' E 139°46'0 0.0
2014-Apr-15 17:15N 35°39' E 139°46'0 0.0
2014-Apr-15 16:33N 35°39' E 139°46'0 0.0
2014-Apr-15 15:33N 35°39' E 139°46'0 0.0
2014-Apr-15 14:24N 35°39' E 139°46'0 0.0
2014-Apr-15 12:33N 35°39' E 139°46'0 0.0
2014-Apr-15 10:33N 35°39' E 139°46'0 0.0
2014-Apr-15 09:33N 35°39' E 139°46'0 0.0
2014-Apr-15 08:33N 35°39' E 139°46'0 0.0
2014-Apr-15 07:33N 35°39' E 139°46'0 0.0
2014-Apr-15 05:30N 35°39' E 139°46'0 0.0
2014-Apr-15 03:30N 35°39' E 139°46'0 0.0
2014-Apr-15 00:33N 35°39' E 139°46'0 0.0
2014-Apr-14 22:33N 35°39' E 139°46'0 0.0
2014-Apr-14 21:30N 35°39' E 139°46'0 0.0
2014-Apr-14 20:33N 35°39' E 139°46'0 0.0
2014-Apr-14 19:33N 35°39' E 139°46'0 0.0
2014-Apr-14 18:30N 35°39' E 139°46'0 0.0
2014-Apr-14 17:33N 35°39' E 139°46'0 0.0
2014-Apr-14 16:33N 35°39' E 139°46'0 0.0
2014-Apr-14 14:33N 35°39' E 139°46'0 0.0
2014-Apr-14 13:30N 35°39' E 139°46'0 0.0
2014-Apr-14 11:33N 35°39' E 139°46'0 0.0
2014-Apr-14 10:33N 35°39' E 139°46'0 0.0
2014-Apr-14 09:33N 35°39' E 139°46'0 0.0
2014-Apr-14 08:33N 35°39' E 139°46'0 0.0
2014-Apr-14 07:33N 35°39' E 139°46'0 0.0
2014-Apr-14 06:33N 35°39' E 139°46'0 0.1
2014-Apr-14 05:33N 35°39' E 139°46'2 0.3
2014-Apr-13 22:31N 35°37' E 139°46'4 3.4
2014-Apr-13 21:28N 35°34' E 139°49'3 3.2
2014-Apr-13 20:33N 35°36' E 139°47'3 2.5
2014-Apr-13 19:32N 35°39' E 139°46'0 0.1
2014-Apr-13 18:29N 35°39' E 139°46'0 0.1
2014-Apr-13 17:23N 35°39' E 139°46'0 0.0
2014-Apr-13 16:29N 35°39' E 139°46'0 0.0
2014-Apr-13 15:32N 35°39' E 139°46'0 0.0
2014-Apr-13 14:32N 35°39' E 139°46'0 0.0
2014-Apr-13 13:26N 35°39' E 139°46'0 0.0
2014-Apr-13 12:29N 35°39' E 139°46'0 0.0
2014-Apr-13 11:29N 35°39' E 139°46'0 0.0
2014-Apr-13 10:32N 35°39' E 139°46'0 0.0
2014-Apr-13 09:32N 35°39' E 139°46'0 0.0
2014-Apr-13 08:32N 35°39' E 139°46'3 3.4
2014-Apr-13 07:33N 35°38' E 139°49'3 3.3
2014-Apr-13 06:33N 35°39' E 139°46'0 0.1
2014-Apr-13 05:33N 35°39' E 139°46'0 0.0
2014-Apr-13 04:24N 35°39' E 139°46'0 0.0
2014-Apr-13 03:33N 35°39' E 139°46'0 0.0
2014-Apr-13 02:33N 35°39' E 139°46'0 0.0
2014-Apr-13 01:30N 35°39' E 139°46'0 0.0
2014-Apr-13 00:33N 35°39' E 139°46'0 0.0
2014-Apr-12 23:30N 35°39' E 139°46'0 0.0
2014-Apr-12 22:33N 35°39' E 139°46'0 0.0
2014-Apr-12 21:30N 35°39' E 139°46'0 0.0
2014-Apr-12 20:33N 35°39' E 139°46'0 0.0
2014-Apr-12 19:30N 35°39' E 139°46'0 0.1
2014-Apr-12 18:30N 35°39' E 139°46'0 0.1
2014-Apr-12 17:27N 35°39' E 139°46'0 0.0
2014-Apr-12 16:24N 35°39' E 139°46'0 0.0
2014-Apr-12 15:24N 35°39' E 139°46'0 0.0
2014-Apr-12 14:33N 35°39' E 139°46'0 0.0
2014-Apr-12 13:33N 35°39' E 139°46'0 0.0
2014-Apr-12 12:24N 35°39' E 139°46'0 0.0
2014-Apr-12 11:30N 35°39' E 139°46'0 0.0
2014-Apr-12 10:30N 35°39' E 139°46'0 0.0
2014-Apr-12 09:24N 35°39' E 139°46'0 0.0
2014-Apr-12 08:30N 35°39' E 139°46'0 0.0
2014-Apr-12 07:33N 35°39' E 139°46'2 2.5
2014-Apr-12 06:33N 35°37' E 139°47'2 2.0
2014-Apr-12 05:17N 35°39' E 139°46'0 0.1
2014-Apr-12 04:26N 35°39' E 139°46'0 0.0
2014-Apr-12 03:26N 35°39' E 139°46'1 1.6
2014-Apr-12 02:34N 35°37' E 139°46'1 0.6
2014-Apr-12 01:33N 35°37' E 139°46'2 1.9
2014-Apr-12 00:30N 35°39' E 139°46'0 0.1
2014-Apr-11 23:33N 35°39' E 139°46'0 0.0
2014-Apr-11 22:30N 35°39' E 139°46'0 0.0
2014-Apr-11 21:30N 35°39' E 139°46'0 0.0
2014-Apr-11 20:30N 35°39' E 139°46'0 0.0
2014-Apr-11 19:33N 35°39' E 139°46'0 0.0
2014-Apr-11 18:33N 35°39' E 139°46'0 0.0
2014-Apr-11 17:33N 35°39' E 139°46'0 0.0
2014-Apr-11 16:33N 35°39' E 139°46'0 0.0
2014-Apr-11 15:30N 35°39' E 139°46'0 0.0
2014-Apr-11 14:33N 35°39' E 139°46'0 0.0
2014-Apr-11 13:30N 35°39' E 139°46'0 0.0
2014-Apr-11 12:33N 35°39' E 139°46'0 0.0
2014-Apr-11 11:33N 35°39' E 139°46'0 0.0
2014-Apr-11 10:24N 35°39' E 139°46'0 0.0
2014-Apr-11 09:30N 35°39' E 139°46'0 0.0
2014-Apr-11 08:03N 35°39' E 139°46'0 0.0
2014-Apr-11 07:30N 35°39' E 139°46'0 0.0
2014-Apr-11 06:33N 35°39' E 139°46'0 0.0
2014-Apr-11 05:33N 35°39' E 139°46'0 0.0
2014-Apr-11 04:27N 35°39' E 139°46'0 0.0
2014-Apr-11 03:33N 35°39' E 139°46'0 0.0
2014-Apr-11 02:30N 35°39' E 139°46'0 0.0
2014-Apr-11 01:33N 35°39' E 139°46'0 0.0
2014-Apr-11 00:33N 35°39' E 139°46'0 0.0
2014-Apr-10 23:33N 35°39' E 139°46'0 0.0
2014-Apr-10 22:33N 35°39' E 139°46'0 0.0
2014-Apr-10 21:30N 35°39' E 139°46'3 2.7
2014-Apr-10 20:33N 35°36' E 139°46'3 2.5
2014-Apr-10 19:32N 35°39' E 139°46'0 0.0
2014-Apr-10 18:32N 35°39' E 139°46'0 0.0
2014-Apr-10 17:26N 35°39' E 139°46'0 0.0
2014-Apr-10 16:29N 35°39' E 139°46'0 0.0
2014-Apr-10 15:08N 35°39' E 139°46'0 0.0
2014-Apr-10 14:32N 35°39' E 139°46'0 0.0
2014-Apr-10 13:26N 35°39' E 139°46'3 2.9
2014-Apr-10 12:28N 35°36' E 139°47'1 0.5
2014-Apr-10 11:32N 35°36' E 139°46'0 0.3
2014-Apr-10 10:33N 35°36' E 139°46'1 1.0
2014-Apr-10 09:33N 35°36' E 139°47'0 0.4
2014-Apr-10 08:33N 35°35' E 139°47'0 0.3
2014-Apr-10 07:32N 35°35' E 139°47'3 2.7
2014-Apr-10 06:29N 35°38' E 139°46'4 3.8
2014-Apr-10 05:33N 35°35' E 139°48'2 1.6
2014-Apr-10 04:33N 35°36' E 139°46'3 2.6
2014-Apr-10 03:33N 35°39' E 139°46'0 0.0
2014-Apr-10 02:33N 35°39' E 139°46'0 0.0
2014-Apr-10 01:27N 35°39' E 139°46'1 0.7
2014-Apr-10 00:31N 35°39' E 139°46'3 2.7
2014-Apr-09 23:34N 35°36' E 139°46'2 2.4
2014-Apr-09 22:34N 35°35' E 139°48'5 4.5
2014-Apr-09 21:29N 35°39' E 139°46'0 0.0
2014-Apr-09 20:32N 35°39' E 139°46'  

Dump ship's entire track history

sailing weather and tide predictions

Fuji Maru — JD2030 — position and weather